Weather History for KBCK - April, 2013

Nearest airport to NA, NA.

See history from more local stations
Change the Weather History Date:

Wednesday, April 3, 2013

  Actual Average (KLSE) Record (KLSE)
Temperature  
Mean Temperature 26 °F 43 °F  
Max Temperature 44 °F 53 °F 80 °F (1921)
Min Temperature 8 °F 33 °F 10 °F (1954)
Degree Days  
Heating Degree Days 39 22  
Month to date heating degree days 68  
Since 1 July heating degree days 6521  
Cooling Degree Days 0 0  
Month to date cooling degree days 0  
Year to date cooling degree days 0  
Moisture  
Dew Point 12 °F    
Average Humidity 56    
Maximum Humidity 100    
Minimum Humidity 21    
Precipitation  
Precipitation 0.00 in 0.08 in 2.17 in (1981)
Month to date precipitation 0.26  
Year to date precipitation 4.47  
Snow  
Snow 0.00 in 0.10 in 6.00 in (1945)
Month to date snowfall 0.3  
Since 1 July snowfall 41.9  
Snow Depth -    
Sea Level Pressure  
Sea Level Pressure 30.33 in    
Wind  
Wind Speed 2 mph (South)    
Max Wind Speed 15 mph    
Max Gust Speed 17 mph    
Visibility 10 miles    
Events      
T = Trace of Precipitation, MM = Missing Value Source: NWS Daily Summary

Daily Weather History Graph

Daily Weather History Graph

Search for Another Location

Airport or City:

Trip Planner

Search our weather history database for the weather conditions in past years. The results will help you decide how hot, cold, wet, or windy it might be!

Date:

Astronomy

Apr. 03, 2013 Rise Set
Actual Time 6:40 AM CDT 7:33 PM CDT
Civil Twilight 6:11 AM CDT 8:02 PM CDT
Nautical Twilight 5:36 AM CDT 8:38 PM CDT
Astronomical Twilight 4:59 AM CDT 9:14 PM CDT
Moon 2:35 AM CDT (4/3) 12:32 PM CDT (4/3)
Length of Visible Light 13h 51m
Length of Day
12h 52m
Last Quarter, 44% of the Moon is Illuminated
Apr 3
Last Quarter
Apr 10
New
Apr 18
First Quarter
Apr 25
Full
May 2
Last Quarter

Hourly Weather History & Observations

Time (CDT) Temp. Windchill Dew Point Humidity Pressure Visibility Wind Dir Wind Speed Gust Speed Precip Events Conditions
12:15 AM 17.6 °F - 14.0 °F 86% 30.33 in 10.0 mi Calm Calm - N/A   Clear
12:35 AM 17.6 °F 12.3 °F 14.0 °F 86% 30.33 in 10.0 mi South 3.5 mph - N/A   Clear
12:55 AM 17.6 °F - 14.0 °F 86% 30.33 in 10.0 mi Calm Calm - N/A   Clear
1:15 AM 17.6 °F - 14.0 °F 86% 30.34 in 10.0 mi Calm Calm - N/A   Clear
1:35 AM 15.8 °F - 14.0 °F 93% 30.34 in 10.0 mi Calm Calm - N/A   Clear
1:55 AM 14.0 °F - 14.0 °F 100% 30.34 in 10.0 mi Calm Calm - N/A   Clear
2:15 AM 14.0 °F - 12.2 °F 93% 30.35 in 10.0 mi Calm Calm - N/A   Clear
2:35 AM 14.0 °F - 14.0 °F 100% 30.35 in 10.0 mi Calm Calm - N/A   Clear
2:55 AM 14.0 °F - 12.2 °F 93% 30.35 in 10.0 mi Calm Calm - N/A   Clear
3:15 AM 12.2 °F - 10.4 °F 92% 30.35 in 10.0 mi Calm Calm - N/A   Clear
3:35 AM 12.2 °F - 10.4 °F 92% 30.35 in 10.0 mi Calm Calm - N/A   Clear
3:55 AM 12.2 °F - 10.4 °F 92% 30.35 in 10.0 mi Calm Calm - N/A   Clear
4:15 AM 12.2 °F - 10.4 °F 92% 30.36 in 10.0 mi Calm Calm - N/A   Clear
4:35 AM 10.4 °F - 8.6 °F 92% 30.36 in 10.0 mi Calm Calm - N/A   Clear
4:55 AM 12.2 °F - 10.4 °F 92% 30.36 in 10.0 mi Calm Calm - N/A   Clear
5:15 AM 10.4 °F - 8.6 °F 92% 30.37 in 10.0 mi Calm Calm - N/A   Clear
5:35 AM 10.4 °F - 10.4 °F 100% 30.37 in 10.0 mi Calm Calm - N/A   Clear
5:55 AM 10.4 °F - 8.6 °F 92% 30.37 in 10.0 mi Calm Calm - N/A   Clear
6:15 AM 8.6 °F - 6.8 °F 92% 30.38 in 10.0 mi Calm Calm - N/A   Clear
6:35 AM 10.4 °F - 6.8 °F 85% 30.38 in 10.0 mi Calm Calm - N/A   Clear
6:55 AM 10.4 °F - 8.6 °F 92% 30.39 in 10.0 mi Calm Calm - N/A   Clear
7:15 AM 8.6 °F - 6.8 °F 92% 30.40 in 10.0 mi Calm Calm - N/A   Clear
7:35 AM 10.4 °F - 8.6 °F 92% 30.41 in 10.0 mi Calm Calm - N/A   Clear
8:15 AM 17.6 °F - 14.0 °F 86% 30.42 in 10.0 mi Calm Calm - N/A   Clear
8:35 AM 21.2 °F - 15.8 °F 80% 30.43 in 10.0 mi Calm Calm - N/A   Clear
8:55 AM 24.8 °F 20.5 °F 17.6 °F 74% 30.44 in 10.0 mi South 3.5 mph - N/A   Clear
9:15 AM 26.6 °F - 15.8 °F 64% 30.44 in 10.0 mi Calm Calm - N/A   Clear
9:35 AM 28.4 °F - 17.6 °F 64% 30.44 in 10.0 mi Calm Calm - N/A   Clear
9:55 AM 30.2 °F - 17.6 °F 60% 30.44 in 10.0 mi Calm Calm - N/A   Clear
10:15 AM 32.0 °F - 14.0 °F 48% 30.43 in 10.0 mi Calm Calm - N/A   Clear
10:35 AM 33.8 °F 29.6 °F 12.2 °F 41% 30.43 in 10.0 mi SSE 4.6 mph - N/A   Clear
10:55 AM 35.6 °F 32.8 °F 8.6 °F 33% 30.42 in 10.0 mi SSE 3.5 mph - N/A   Clear
11:15 AM 35.6 °F 31.7 °F 8.6 °F 33% 30.41 in 10.0 mi SE 4.6 mph - N/A   Clear
11:35 AM 37.4 °F - 8.6 °F 30% 30.40 in 10.0 mi Calm Calm - N/A   Clear
11:55 AM 37.4 °F - 5.0 °F 26% 30.40 in 10.0 mi Calm Calm - N/A   Clear
12:15 PM 37.4 °F 34.9 °F 8.6 °F 30% 30.38 in 10.0 mi North 3.5 mph - N/A   Clear
12:35 PM 37.4 °F 34.9 °F 8.6 °F 30% 30.38 in 10.0 mi NNW 3.5 mph - N/A   Clear
12:55 PM 41.0 °F 39.0 °F 8.6 °F 26% 30.36 in 10.0 mi East 3.5 mph - N/A   Clear
1:15 PM 41.0 °F - 8.6 °F 26% 30.35 in 10.0 mi Calm Calm - N/A   Clear
1:35 PM 41.0 °F 39.0 °F 8.6 °F 26% 30.35 in 10.0 mi SE 3.5 mph - N/A   Clear
1:55 PM 42.8 °F 41.1 °F 6.8 °F 23% 30.35 in 10.0 mi SSW 3.5 mph - N/A   Clear
2:15 PM 42.8 °F 37.5 °F 6.8 °F 23% 30.35 in 10.0 mi SSE 9.2 mph - N/A   Clear
2:35 PM 42.8 °F 37.5 °F 5.0 °F 21% 30.34 in 10.0 mi South 9.2 mph - N/A   Clear
2:55 PM 42.8 °F 39.3 °F 8.6 °F 25% 30.33 in 10.0 mi South 5.8 mph - N/A   Clear
3:15 PM 42.8 °F 37.5 °F 8.6 °F 25% 30.33 in 10.0 mi SSW 9.2 mph - N/A   Clear
3:35 PM 42.8 °F 37.5 °F 8.6 °F 25% 30.32 in 10.0 mi SSW 9.2 mph - N/A   Clear
3:55 PM 42.8 °F 35.4 °F 8.6 °F 25% 30.32 in 10.0 mi SW 15.0 mph - N/A   Clear
4:15 PM 44.6 °F 40.7 °F 8.6 °F 23% 30.31 in 10.0 mi SW 6.9 mph - N/A   Clear
4:35 PM 44.6 °F 38.4 °F 10.4 °F 25% 30.29 in 10.0 mi South 12.7 mph 17.3 mph N/A   Clear
4:55 PM 44.6 °F 40.7 °F 10.4 °F 25% 30.29 in 10.0 mi South 6.9 mph - N/A   Clear
5:15 PM 44.6 °F 40.7 °F 10.4 °F 25% 30.27 in 10.0 mi South 6.9 mph - N/A   Clear
5:35 PM 44.6 °F 40.2 °F 12.2 °F 27% 30.26 in 10.0 mi South 8.1 mph 17.3 mph N/A   Clear
5:55 PM 44.6 °F 40.7 °F 14.0 °F 29% 30.26 in 10.0 mi South 6.9 mph - N/A   Clear
6:15 PM 44.6 °F 39.7 °F 12.2 °F 27% 30.25 in 10.0 mi SSW 9.2 mph - N/A   Clear
6:35 PM 44.6 °F 39.7 °F 12.2 °F 27% 30.25 in 10.0 mi South 9.2 mph - N/A   Clear
6:55 PM 42.8 °F 38.6 °F 12.2 °F 29% 30.24 in 10.0 mi SSW 6.9 mph - N/A   Clear
7:15 PM 42.8 °F 38.6 °F 12.2 °F 29% 30.24 in 10.0 mi South 6.9 mph - N/A   Clear
7:35 PM 41.0 °F 37.1 °F 14.0 °F 33% 30.24 in 10.0 mi South 5.8 mph - N/A   Clear
7:55 PM 39.2 °F 35.9 °F 14.0 °F 36% 30.24 in 10.0 mi SSW 4.6 mph - N/A   Clear
8:15 PM 37.4 °F 33.8 °F 14.0 °F 38% 30.23 in 10.0 mi South 4.6 mph - N/A   Clear
8:35 PM 35.6 °F 32.8 °F 14.0 °F 41% 30.22 in 10.0 mi South 3.5 mph - N/A   Clear
8:55 PM 35.6 °F 32.8 °F 14.0 °F 41% 30.22 in 10.0 mi South 3.5 mph - N/A   Clear
9:15 PM 35.6 °F 32.8 °F 14.0 °F 41% 30.22 in 10.0 mi South 3.5 mph - N/A   Clear
9:35 PM 35.6 °F 32.8 °F 14.0 °F 41% 30.23 in 10.0 mi SSW 3.5 mph - N/A   Clear
9:55 PM 33.8 °F - 15.8 °F 48% 30.23 in 10.0 mi Calm Calm - N/A   Clear
10:15 PM 30.2 °F 26.7 °F 17.6 °F 60% 30.23 in 10.0 mi South 3.5 mph - N/A   Clear
10:35 PM 32.0 °F 27.5 °F 15.8 °F 51% 30.22 in 10.0 mi SSW 4.6 mph - N/A   Clear
10:55 PM 33.8 °F 29.6 °F 19.4 °F 56% 30.22 in 10.0 mi SSW 4.6 mph - N/A   Clear
11:15 PM 33.8 °F 30.8 °F 19.4 °F 56% 30.20 in 10.0 mi South 3.5 mph - N/A   Clear
11:35 PM 33.8 °F 29.6 °F 19.4 °F 56% 30.19 in 10.0 mi South 4.6 mph - N/A   Clear
11:55 PM 33.8 °F 30.8 °F 19.4 °F 56% 30.19 in 10.0 mi SSW 3.5 mph - N/A   Clear